Overview Statistics Trail Chart Weather Telemetry Raw packets
 

This is the latest recevied weather packets stored in our database for station/object WS4FSC-7. If no packets are shown the sender has not sent any weather packets the latest 10 day(s).

<< 22 23 24 25 26 27 28 >>
Time Temp. Humidity Pressure Rain* Wind** Luminosity Snow
1788377031 31.67° C 73% 1013 hPa - - 656 W/m² -
1788376311 31.67° C 75% 1013 hPa - - 838 W/m² -
1788376131 31.67° C 74% 1013 hPa - - 865 W/m² -
1788375410 30.56° C 76% 1013 hPa - - 583 W/m² -
1788375232 30.56° C 77% 1013 hPa - - 623 W/m² -
1788375051 31.67° C 75% 1013 hPa - - 672 W/m² -
1788374870 31.11° C 75% 1013 hPa - - 634 W/m² -
1788374690 31.11° C 75% 1013 hPa - - 858 W/m² -
1788374510 31.67° C 73% 1013 hPa - - 867 W/m² -
1788374330 31.11° C 76% 1013 hPa - - 854 W/m² -
1788374150 31.67° C 74% 1013 hPa - - 851 W/m² -
1788373970 31.67° C 74% 1013 hPa - - 863 W/m² -
1788373791 31.67° C 75% 1013 hPa - - 902 W/m² -
1788373611 31.67° C 74% 1013 hPa - - 890 W/m² -
1788373431 31.11° C 75% 1013 hPa - - 878 W/m² -
1788373071 31.11° C 76% 1013 hPa - - 899 W/m² -
1788372891 31.11° C 76% 1013 hPa - - 910 W/m² -
1788372711 31.11° C 75% 1013 hPa - - 920 W/m² -
1788372531 31.67° C 75% 1013 hPa - - 928 W/m² -
1788372171 31.67° C 75% 1014 hPa - - 956 W/m² -
1788371810 31.11° C 75% 1014 hPa - - 972 W/m² -
1788371630 31.11° C 78% 1013 hPa - - 906 W/m² -
1788371270 30.56° C 77% 1014 hPa - - 990 W/m² -
1788370910 31.11° C 77% 1014 hPa - - 261 W/m² -
1788370730 31.11° C 76% 1014 hPa - - 478 W/m² -

* Rain since midnight (hover to see other rain measurements)
** Current wind speed in m/s (hover to see current wind gust speed)